SCP
0 0 0 0 0 -0 0 0 0 0 0 0 0 0 0 0 0 0 0 0 0 0 0 -0 -0 0 0 0 -0 0 -0 -0 0 0 0 0 0 0 0 0 0 0 0 0
0 0 0 0 0 0 0 0 0 0 0 0 0 0 0 0 0 0 0 0 0 0 -0 -0 0 -0 -0 -0 -0 -0 -0 0 0 0 0 0 0 0 0 0 0 0 0 0
0 0 0 0 0 0 0 0 0 0 0 0 0 0 0 0 0 0 0 0 0 0 0 0 -0 -0 -0 -0 -0 -0 0 -0 0 0 0 0 0 0 0 0 0 -0 -0 0
0 0 0 0 0 0 0 0 0 0 0 0 0 0 0 0 0 0 0 0 0 0 0 -0 0 -0 -0 0 -0 -0 0 0 -0 0 0 0 0 0 0 0 0 0 0 0
0 0 0 0 0 0 0 0 0 0 0 0 0 0 0 0 0 0 0 0 0 0 -0 0 -0 0 0 0 0 0 -0 0 -0 0 0 0 0 0 0 0 0 0 0 0
0 0 0 0 0 0 0 0 0 0 0 0 0 0 0 0 0 0 0 0 0 0 0 0 -0 -0 -0 -0 0 0 0 -0 0 0 0 0 0 0 0 0 0 0 0 0
0 0 0 0 0 0 0 0 0 0 0 0 0 0 0 0 0 0 0 0 0 0 -0 -0 -0 -0 0 -0 -0 -0 0 0 0 0 0 0 0 0 0 0 0 0 0 0
0 0 0 0 0 0 0 0 0 0 0 0 0 0 0 0 0 0 0 0 0 0 -0 0 0 0 0 0 0 0 -0 0 0 0 0 0 0 0 0 0 0 0 0 -0
0 0 0 0 0 0 0 0 0 0 0 0 0 0 0 0 0 0 0 0 0 0 0 0 0 0 0 0 0 0 -0 -0 0 0 0 0 0 0 0 0 0 -0 -0 -0
0 0 0 0 0 0 0 0 0 0 0 0 0 0 0 0 0 0 0 0 0 0 0 -0 0 0 -0 0 0 0 0 0 0 0 0 0 0 0 0 0 0 0 -0 -0
0 0 0 0 0 0 0 0 0 0 0 0 0 0 0 0 0 0 0 0 0 0 0 0 0 0 0 0 0 0 0 0 0 0 0 0 0 0 0 0 0 0 -0 -0
0 0 0 0 0 0 0 0 0 0 0 0 0 0 0 0 0 0 0 0 0 0 0 0 0 0 0 0 0 0 0 0 0 0 0 0 0 0 0 0 0 0 0 -0
0 0 0 0 0 0 0 0 0 0 0 0 0 0 0 0 0 0 0 0 0 0 0 0 0 0 0 0 0 0 0 0 0 0 0 0 0 0 -0 -0 0 0 -0 -0
0 0 0 0 0 0 0 0 0 0 0 0 0 0 0 0 0 0 0 0 0 -0 0 -0 0 0 0 0 0 0 0 0 0 -0 0 0 0 -0 0 -0 0 -0 -0 -0
0 0 0 0 0 0 0 0 0 0 0 0 0 0 0 0 0 0 0 0 0 0 0 0 0 0 0 0 0 0 0 0 0 0 -0 0 -0 0 0 0 0 0 -0 0
0 0 0 0 0 0 0 0 0 0 0 0 0 0 0 0 0 0 0 0 0 0 0 0 0 0 -0 0 0 0 0 0 0 0 -0 -0 -0 -0 0 0 0 0 0 -0
0 0 0 0 0 0 0 0 0 0 0 0 0 0 0 0 0 0 0 0 0 0 0 0 0 0 -0 0 0 0 0 0 0 0 0 0 0 0 -0 -0 -0 -0 -0 -0
0 0 0 0 0 0 0 0 0 0 0 0 0 0 0 0 0 0 0 0 0 0 0 0 0 0 0 0 -0 0 0 0 0 0 -0 0 0 0 0 -0 -0 -0 0 0
0 0 0 0 0 0 0 0 0 0 0 0 0 0 0 0 0 0 0 0 0 0 0 0 0 0 0 -0 0 0 -0 -0 -0 0 0 0 0 0 0 0 0 0 0 0
0 0 0 0 0 0 0 0 0 0 0 0 0 0 0 0 0 0 0 0 0 0 0 0 0 0 0 0 0 0 0 -0 -0 0 0 0 0 0 0 0 0 0 0 0
0 0 0 0 0 0 0 0 0 0 0 0 0 0 0 0 0 0 0 0 0 0 0 0 0 0 0 0 0 0 0 0 0 0 0 0 0 0 0 0 0 0 0 0
0 0 0 0 0 0 0 0 0 0 0 0 0 0 0 0 0 0 0 0 0 0 0 0 0 -0 0 0 0 -0 0 0 0 0 0 0 0 0 -0 0 0 0 0 0
0 0 0 0 0 0 0 0 0 0 0 0 0 0 0 0 0 0 0 0 0 0 0 0 0 0 0 0 0 0 0 0 0 0 0 0 0 0 0 0 0 0 0 0
0 0 0 0 0 0 0 0 0 0 0 0 0 0 0 0 0 0 0 0 0 0 0 0 -0 0 0 -0 0 0 0 0 0 0 0 0 0 0 0 0 0 0 0 0
0 0 0 0 0 0 0 0 0 0 0 0 0 0 0 0 0 0 0 0 0 0 0 0 -0 0 0 0 0 0 0 0 0 0 0 0 0 0 0 0 0 0 0 0
0 0 0 0 0 0 0 0 0 0 0 0 0 0 0 0 0 0 0 0 0 0 -0 -0 0 0 0 0 0 0 0 0 0 0 0 0 0 0 0 0 0 0 0 0
0 0 0 0 0 0 0 0 0 0 0 0 0 0 0 0 0 0 0 0 0 0 0 0 0 0 0 -0 0 0 0 0 0 0 0 0 0 0 0 0 0 0 0 0
Wind_Speed_500mb
80 80 79 78 78 79 78 32 6 29 32 14 7 6 9 15 12 7 8 7 8 11 24 11 11 10 13 20 17 5 11 5 5 12 6 15 13 12 9 8 4 5 5 7
76 76 76 74 69 72 71 31 15 25 23 7 8 13 12 7 15 12 8 8 8 11 12 12 13 15 27 39 18 9 2 4 5 11 11 6 8 7 7 10 6 6 9 8
71 73 73 70 67 62 53 21 10 16 19 15 6 10 9 14 35 14 26 13 12 14 14 10 21 26 19 57 17 27 7 5 9 10 11 8 8 11 9 10 7 8 9 11
69 70 71 66 64 60 43 23 7 8 9 10 13 4 9 11 15 17 22 12 20 15 10 23 6 19 28 21 16 17 9 5 6 6 9 5 9 10 13 11 8 9 7 11
66 66 66 62 61 57 32 14 14 15 17 23 14 12 9 8 20 8 16 11 27 17 17 19 34 21 15 17 13 11 14 6 6 8 8 10 9 11 14 4 7 4 5 6
63 64 62 58 56 54 23 23 13 7 14 9 8 5 8 16 26 16 22 21 25 18 15 41 62 58 47 36 16 14 8 7 4 4 12 7 8 16 16 11 8 12 10 7
59 60 59 53 51 46 37 28 15 8 8 4 6 17 34 21 25 20 47 43 11 24 66 82 53 46 41 37 30 27 7 9 4 5 6 3 12 4 13 11 2 8 12 14
57 57 56 51 46 41 32 27 11 6 9 11 23 9 16 30 34 17 34 24 48 51 40 9 12 5 2 4 12 23 22 5 4 2 4 6 4 7 4 14 11 12 20 20
53 52 50 48 44 41 30 19 15 6 13 8 9 19 18 12 19 14 12 48 40 26 5 6 8 5 9 9 6 6 18 13 5 6 3 1 5 7 24 3 8 21 27 36
50 46 44 42 42 36 36 15 19 11 12 16 10 8 9 13 11 9 16 28 21 24 10 7 6 7 15 7 6 4 8 5 6 4 6 6 10 25 23 8 8 11 47 54
46 42 38 38 40 37 36 27 16 17 14 44 21 16 24 21 14 6 21 20 8 11 12 8 6 5 8 10 12 6 3 2 5 1 4 6 31 16 2 9 39 29 46 37
42 38 35 34 35 36 27 22 26 29 27 41 59 30 22 21 30 34 8 7 7 5 5 6 5 5 6 10 6 9 4 5 5 1 4 2 13 16 28 28 36 27 44 50
40 34 32 31 34 32 26 32 30 29 21 39 13 3 18 37 30 24 16 11 6 4 19 7 5 6 6 7 6 10 13 14 6 6 9 16 11 47 31 12 20 39 56 60
37 32 30 31 32 32 33 30 24 20 13 10 16 27 20 6 11 23 46 42 18 26 24 4 4 4 5 6 8 8 8 17 10 6 5 24 11 40 24 14 27 42 56 60
35 30 29 30 32 33 29 18 5 8 8 9 29 32 2 20 29 24 32 45 49 28 10 5 4 6 7 7 5 5 7 6 6 6 21 12 34 39 14 17 40 56 60 58
31 28 28 29 31 30 21 4 4 4 14 9 9 19 11 29 21 16 16 29 32 17 10 8 7 9 8 4 5 6 9 11 15 12 28 41 39 17 6 26 40 46 55 65
27 25 25 22 26 26 12 7 6 10 15 7 14 15 11 23 18 10 6 8 12 15 10 11 8 11 13 4 7 9 19 25 23 32 26 23 17 16 8 30 46 58 61 62
24 21 22 23 24 22 6 2 5 13 16 8 5 8 15 13 11 9 5 5 10 13 9 5 7 5 10 7 19 25 25 25 29 16 34 38 27 16 25 37 56 67 73 67
22 19 19 25 10 10 6 10 18 13 12 6 7 4 7 18 10 10 6 5 4 5 4 5 5 4 8 12 21 25 24 20 33 38 30 11 26 34 43 50 53 64 74 72
16 13 8 3 7 5 10 6 4 10 10 10 9 9 6 8 7 8 6 1 4 4 6 4 5 7 42 35 28 28 33 31 30 29 13 13 33 43 44 46 51 59 71 73
8 6 5 10 9 7 7 8 10 12 8 12 14 20 8 10 6 6 7 3 3 4 3 2 4 6 5 12 18 28 35 37 34 28 19 19 35 52 52 48 48 55 60 68
12 4 8 7 8 8 5 7 6 7 8 12 11 14 18 10 11 7 9 4 3 7 4 5 5 5 8 15 23 28 24 15 7 18 24 29 40 42 48 50 54 57 64 65
12 5 3 4 7 6 12 12 8 5 10 14 10 6 7 5 11 11 4 5 9 5 5 5 6 3 4 7 10 10 8 13 22 30 30 31 40 41 44 55 56 63 66 61
10 11 4 10 9 10 9 8 7 9 5 6 13 10 5 4 3 5 6 8 5 5 5 5 5 5 6 5 10 12 19 21 26 30 33 38 42 48 51 54 58 62 63 56
11 10 8 11 17 14 11 20 10 4 5 7 7 7 4 5 6 6 6 6 5 5 4 4 13 12 15 16 16 21 26 28 32 33 39 45 50 58 61 57 50 42 42 42
11 15 8 12 8 11 18 20 16 7 6 3 3 2 3 8 5 5 9 5 6 3 3 26 5 18 21 26 23 25 31 34 37 42 48 46 42 46 47 37 28 28 35 40
10 13 24 26 18 15 13 17 12 10 3 4 5 4 11 5 6 6 7 6 8 32 39 23 18 20 23 24 21 21 24 28 33 36 36 41 42 46 49 52 43 40 35 30
Wind_Direction_500mb
353 356 356 358 354 357 360 359 14 353 357 43 22 349 291 294 320 318 295 271 285 345 315 298 296 316 317 25 333 246 222 165 199 221 254 171 168 179 153 120 237 68 117 269
351 353 357 360 1 357 354 348 320 351 5 51 328 316 305 300 349 317 329 297 327 327 314 318 322 342 319 352 336 300 208 313 22 1 14 14 145 159 119 111 81 178 132 259
350 351 355 359 3 3 357 358 1 349 38 88 12 334 307 334 335 318 345 280 329 344 317 287 298 299 339 332 341 350 304 161 152 201 214 168 141 155 155 108 106 176 211 273
348 350 352 357 4 6 14 19 44 28 314 348 330 299 335 337 2 328 333 343 353 328 297 307 313 350 344 317 350 358 45 314 10 279 262 208 161 186 160 180 177 149 230 209
345 347 348 353 2 9 21 28 5 337 294 316 323 351 353 321 336 277 300 353 318 298 301 282 304 320 324 281 325 13 343 4 309 297 304 203 186 209 212 205 119 81 184 229
343 343 345 350 1 8 20 8 354 336 285 331 349 297 349 312 328 287 282 298 304 296 274 306 288 278 266 255 295 318 304 324 293 77 325 83 313 221 183 190 152 158 208 206
339 340 341 349 354 2 3 356 360 340 288 301 279 296 301 301 308 285 290 298 286 293 306 307 293 261 250 243 238 213 288 353 306 294 32 178 248 246 206 184 226 155 103 132
337 338 341 346 346 349 352 346 358 357 292 298 298 340 307 308 317 297 287 295 309 312 310 289 318 358 305 210 210 201 201 280 292 41 232 284 35 350 139 164 235 168 138 129
332 336 342 344 346 341 351 331 321 325 303 254 303 303 297 303 327 322 277 318 341 351 283 310 324 329 346 9 102 47 173 238 68 328 255 203 8 332 331 84 290 173 158 159
327 331 337 344 346 346 351 341 315 313 276 282 292 288 294 290 315 291 308 336 327 2 342 338 339 335 341 344 31 72 138 204 211 242 280 318 20 306 308 165 224 213 168 166
320 322 329 337 343 342 344 345 327 330 275 288 278 288 265 276 275 270 316 334 3 332 6 6 340 315 332 334 332 0 74 97 239 159 264 346 4 359 174 298 303 202 185 151
313 314 318 325 331 335 335 333 327 313 286 279 303 300 304 261 258 263 276 251 284 293 323 348 315 330 314 321 343 340 19 2 306 225 262 142 3 322 298 290 255 177 160 157
307 306 308 314 320 328 323 314 311 312 301 309 319 28 320 306 291 256 233 236 227 263 308 312 322 317 309 335 333 322 340 17 307 7 357 321 292 1 351 321 231 161 160 161
301 301 302 307 314 321 319 310 318 302 299 290 284 324 335 322 306 259 239 234 263 300 314 301 275 282 308 297 281 272 253 329 306 284 4 331 298 356 358 74 142 151 159 162
296 295 296 301 309 319 322 319 325 310 316 292 292 320 17 331 326 278 255 245 252 275 296 246 240 266 285 274 304 260 312 1 5 298 343 325 300 323 351 133 139 150 158 153
289 288 291 299 305 317 334 266 207 14 348 319 302 311 310 355 350 349 263 242 238 206 229 239 237 233 243 280 264 260 204 270 293 273 318 320 305 307 272 167 166 160 156 156
278 284 291 295 301 307 295 249 254 277 299 300 305 295 301 334 331 304 313 204 195 206 230 229 227 225 203 250 246 259 236 300 302 317 312 335 322 300 207 164 156 155 147 150
266 279 289 294 296 299 149 110 305 256 257 270 281 275 312 343 310 312 259 202 222 222 244 232 212 230 211 259 242 261 283 297 301 284 315 310 291 235 167 159 152 144 146 152
261 275 289 293 272 187 201 273 283 271 225 265 239 268 275 334 307 283 264 245 238 253 253 234 185 208 233 233 258 268 279 280 292 304 320 302 195 170 157 159 156 150 145 154
262 273 248 212 173 192 291 274 231 206 211 230 252 243 266 304 314 291 304 264 260 268 234 214 227 249 255 276 284 291 297 297 293 292 294 164 154 149 155 157 160 157 153 155
221 212 216 188 210 264 205 232 212 184 220 220 238 234 246 276 218 260 246 234 262 260 264 237 269 265 306 329 320 319 314 308 292 265 237 217 184 165 159 158 155 156 153 157
191 199 278 253 214 212 217 215 183 215 227 206 207 237 225 262 234 242 246 250 143 254 216 252 265 271 333 332 341 340 333 340 110 165 171 155 154 163 157 152 151 152 154 151
210 210 189 179 192 225 220 193 200 220 200 206 217 272 244 233 239 255 262 238 236 137 213 240 237 3 355 339 354 22 65 111 131 139 146 151 143 144 149 143 148 149 146 144
193 171 264 191 200 225 201 195 197 215 187 211 262 262 230 244 246 227 252 241 141 257 225 256 301 266 151 148 119 109 109 116 123 132 139 137 139 135 138 141 142 139 132 131
201 182 228 236 230 233 230 217 290 225 225 281 288 279 268 281 276 225 305 270 245 244 252 266 313 199 171 157 147 132 124 125 126 134 135 135 136 132 125 125 129 133 138 143
222 221 224 233 283 260 235 244 227 190 194 297 253 336 312 257 228 272 237 313 241 322 313 319 249 188 174 166 157 147 136 132 129 126 129 128 131 137 137 141 150 153 149 141
223 240 228 237 263 258 221 199 233 183 200 190 147 219 223 304 253 253 13 277 323 301 302 305 183 194 173 166 158 158 157 152 156 155 153 148 145 143 140 136 135 135 135 138
Wind_Speed_850mb
80 80 79 78 78 79 78 32 6 29 32 14 7 6 9 15 12 7 8 7 8 11 24 11 11 10 13 20 17 5 11 5 5 12 6 15 13 12 9 8 4 5 5 7
76 76 76 74 69 72 71 31 15 25 23 7 8 13 12 7 15 12 8 8 8 11 12 12 13 15 27 39 18 9 2 4 5 11 11 6 8 7 7 10 6 6 9 8
71 73 73 70 67 62 53 21 10 16 19 15 6 10 9 14 35 14 26 13 12 14 14 10 21 26 19 57 17 27 7 5 9 10 11 8 8 11 9 10 7 8 9 11
69 70 71 66 64 60 43 23 7 8 9 10 13 4 9 11 15 17 22 12 20 15 10 23 6 19 28 21 16 17 9 5 6 6 9 5 9 10 13 11 8 9 7 11
66 66 66 62 61 57 32 14 14 15 17 23 14 12 9 8 20 8 16 11 27 17 17 19 34 21 15 17 13 11 14 6 6 8 8 10 9 11 14 4 7 4 5 6
63 64 62 58 56 54 23 23 13 7 14 9 8 5 8 16 26 16 22 21 25 18 15 41 62 58 47 36 16 14 8 7 4 4 12 7 8 16 16 11 8 12 10 7
59 60 59 53 51 46 37 28 15 8 8 4 6 17 34 21 25 20 47 43 11 24 66 82 53 46 41 37 30 27 7 9 4 5 6 3 12 4 13 11 2 8 12 14
57 57 56 51 46 41 32 27 11 6 9 11 23 9 16 30 34 17 34 24 48 51 40 9 12 5 2 4 12 23 22 5 4 2 4 6 4 7 4 14 11 12 20 20
53 52 50 48 44 41 30 19 15 6 13 8 9 19 18 12 19 14 12 48 40 26 5 6 8 5 9 9 6 6 18 13 5 6 3 1 5 7 24 3 8 21 27 36
50 46 44 42 42 36 36 15 19 11 12 16 10 8 9 13 11 9 16 28 21 24 10 7 6 7 15 7 6 4 8 5 6 4 6 6 10 25 23 8 8 11 47 54
46 42 38 38 40 37 36 27 16 17 14 44 21 16 24 21 14 6 21 20 8 11 12 8 6 5 8 10 12 6 3 2 5 1 4 6 31 16 2 9 39 29 46 37
42 38 35 34 35 36 27 22 26 29 27 41 59 30 22 21 30 34 8 7 7 5 5 6 5 5 6 10 6 9 4 5 5 1 4 2 13 16 28 28 36 27 44 50
40 34 32 31 34 32 26 32 30 29 21 39 13 3 18 37 30 24 16 11 6 4 19 7 5 6 6 7 6 10 13 14 6 6 9 16 11 47 31 12 20 39 56 60
37 32 30 31 32 32 33 30 24 20 13 10 16 27 20 6 11 23 46 42 18 26 24 4 4 4 5 6 8 8 8 17 10 6 5 24 11 40 24 14 27 42 56 60
35 30 29 30 32 33 29 18 5 8 8 9 29 32 2 20 29 24 32 45 49 28 10 5 4 6 7 7 5 5 7 6 6 6 21 12 34 39 14 17 40 56 60 58
31 28 28 29 31 30 21 4 4 4 14 9 9 19 11 29 21 16 16 29 32 17 10 8 7 9 8 4 5 6 9 11 15 12 28 41 39 17 6 26 40 46 55 65
27 25 25 22 26 26 12 7 6 10 15 7 14 15 11 23 18 10 6 8 12 15 10 11 8 11 13 4 7 9 19 25 23 32 26 23 17 16 8 30 46 58 61 62
24 21 22 23 24 22 6 2 5 13 16 8 5 8 15 13 11 9 5 5 10 13 9 5 7 5 10 7 19 25 25 25 29 16 34 38 27 16 25 37 56 67 73 67
22 19 19 25 10 10 6 10 18 13 12 6 7 4 7 18 10 10 6 5 4 5 4 5 5 4 8 12 21 25 24 20 33 38 30 11 26 34 43 50 53 64 74 72
16 13 8 3 7 5 10 6 4 10 10 10 9 9 6 8 7 8 6 1 4 4 6 4 5 7 42 35 28 28 33 31 30 29 13 13 33 43 44 46 51 59 71 73
8 6 5 10 9 7 7 8 10 12 8 12 14 20 8 10 6 6 7 3 3 4 3 2 4 6 5 12 18 28 35 37 34 28 19 19 35 52 52 48 48 55 60 68
12 4 8 7 8 8 5 7 6 7 8 12 11 14 18 10 11 7 9 4 3 7 4 5 5 5 8 15 23 28 24 15 7 18 24 29 40 42 48 50 54 57 64 65
12 5 3 4 7 6 12 12 8 5 10 14 10 6 7 5 11 11 4 5 9 5 5 5 6 3 4 7 10 10 8 13 22 30 30 31 40 41 44 55 56 63 66 61
10 11 4 10 9 10 9 8 7 9 5 6 13 10 5 4 3 5 6 8 5 5 5 5 5 5 6 5 10 12 19 21 26 30 33 38 42 48 51 54 58 62 63 56
11 10 8 11 17 14 11 20 10 4 5 7 7 7 4 5 6 6 6 6 5 5 4 4 13 12 15 16 16 21 26 28 32 33 39 45 50 58 61 57 50 42 42 42
11 15 8 12 8 11 18 20 16 7 6 3 3 2 3 8 5 5 9 5 6 3 3 26 5 18 21 26 23 25 31 34 37 42 48 46 42 46 47 37 28 28 35 40
10 13 24 26 18 15 13 17 12 10 3 4 5 4 11 5 6 6 7 6 8 32 39 23 18 20 23 24 21 21 24 28 33 36 36 41 42 46 49 52 43 40 35 30
Wind_Direction_850mb
353 356 356 358 354 357 360 359 14 353 357 43 22 349 291 294 320 318 295 271 285 345 315 298 296 316 317 25 333 246 222 165 199 221 254 171 168 179 153 120 237 68 117 269
351 353 357 360 1 357 354 348 320 351 5 51 328 316 305 300 349 317 329 297 327 327 314 318 322 342 319 352 336 300 208 313 22 1 14 14 145 159 119 111 81 178 132 259
350 351 355 359 3 3 357 358 1 349 38 88 12 334 307 334 335 318 345 280 329 344 317 287 298 299 339 332 341 350 304 161 152 201 214 168 141 155 155 108 106 176 211 273
348 350 352 357 4 6 14 19 44 28 314 348 330 299 335 337 2 328 333 343 353 328 297 307 313 350 344 317 350 358 45 314 10 279 262 208 161 186 160 180 177 149 230 209
345 347 348 353 2 9 21 28 5 337 294 316 323 351 353 321 336 277 300 353 318 298 301 282 304 320 324 281 325 13 343 4 309 297 304 203 186 209 212 205 119 81 184 229
343 343 345 350 1 8 20 8 354 336 285 331 349 297 349 312 328 287 282 298 304 296 274 306 288 278 266 255 295 318 304 324 293 77 325 83 313 221 183 190 152 158 208 206
339 340 341 349 354 2 3 356 360 340 288 301 279 296 301 301 308 285 290 298 286 293 306 307 293 261 250 243 238 213 288 353 306 294 32 178 248 246 206 184 226 155 103 132
337 338 341 346 346 349 352 346 358 357 292 298 298 340 307 308 317 297 287 295 309 312 310 289 318 358 305 210 210 201 201 280 292 41 232 284 35 350 139 164 235 168 138 129
332 336 342 344 346 341 351 331 321 325 303 254 303 303 297 303 327 322 277 318 341 351 283 310 324 329 346 9 102 47 173 238 68 328 255 203 8 332 331 84 290 173 158 159
327 331 337 344 346 346 351 341 315 313 276 282 292 288 294 290 315 291 308 336 327 2 342 338 339 335 341 344 31 72 138 204 211 242 280 318 20 306 308 165 224 213 168 166
320 322 329 337 343 342 344 345 327 330 275 288 278 288 265 276 275 270 316 334 3 332 6 6 340 315 332 334 332 0 74 97 239 159 264 346 4 359 174 298 303 202 185 151
313 314 318 325 331 335 335 333 327 313 286 279 303 300 304 261 258 263 276 251 284 293 323 348 315 330 314 321 343 340 19 2 306 225 262 142 3 322 298 290 255 177 160 157
307 306 308 314 320 328 323 314 311 312 301 309 319 28 320 306 291 256 233 236 227 263 308 312 322 317 309 335 333 322 340 17 307 7 357 321 292 1 351 321 231 161 160 161
301 301 302 307 314 321 319 310 318 302 299 290 284 324 335 322 306 259 239 234 263 300 314 301 275 282 308 297 281 272 253 329 306 284 4 331 298 356 358 74 142 151 159 162
296 295 296 301 309 319 322 319 325 310 316 292 292 320 17 331 326 278 255 245 252 275 296 246 240 266 285 274 304 260 312 1 5 298 343 325 300 323 351 133 139 150 158 153
289 288 291 299 305 317 334 266 207 14 348 319 302 311 310 355 350 349 263 242 238 206 229 239 237 233 243 280 264 260 204 270 293 273 318 320 305 307 272 167 166 160 156 156
278 284 291 295 301 307 295 249 254 277 299 300 305 295 301 334 331 304 313 204 195 206 230 229 227 225 203 250 246 259 236 300 302 317 312 335 322 300 207 164 156 155 147 150
266 279 289 294 296 299 149 110 305 256 257 270 281 275 312 343 310 312 259 202 222 222 244 232 212 230 211 259 242 261 283 297 301 284 315 310 291 235 167 159 152 144 146 152
261 275 289 293 272 187 201 273 283 271 225 265 239 268 275 334 307 283 264 245 238 253 253 234 185 208 233 233 258 268 279 280 292 304 320 302 195 170 157 159 156 150 145 154
262 273 248 212 173 192 291 274 231 206 211 230 252 243 266 304 314 291 304 264 260 268 234 214 227 249 255 276 284 291 297 297 293 292 294 164 154 149 155 157 160 157 153 155
221 212 216 188 210 264 205 232 212 184 220 220 238 234 246 276 218 260 246 234 262 260 264 237 269 265 306 329 320 319 314 308 292 265 237 217 184 165 159 158 155 156 153 157
191 199 278 253 214 212 217 215 183 215 227 206 207 237 225 262 234 242 246 250 143 254 216 252 265 271 333 332 341 340 333 340 110 165 171 155 154 163 157 152 151 152 154 151
210 210 189 179 192 225 220 193 200 220 200 206 217 272 244 233 239 255 262 238 236 137 213 240 237 3 355 339 354 22 65 111 131 139 146 151 143 144 149 143 148 149 146 144
193 171 264 191 200 225 201 195 197 215 187 211 262 262 230 244 246 227 252 241 141 257 225 256 301 266 151 148 119 109 109 116 123 132 139 137 139 135 138 141 142 139 132 131
201 182 228 236 230 233 230 217 290 225 225 281 288 279 268 281 276 225 305 270 245 244 252 266 313 199 171 157 147 132 124 125 126 134 135 135 136 132 125 125 129 133 138 143
222 221 224 233 283 260 235 244 227 190 194 297 253 336 312 257 228 272 237 313 241 322 313 319 249 188 174 166 157 147 136 132 129 126 129 128 131 137 137 141 150 153 149 141
223 240 228 237 263 258 221 199 233 183 200 190 147 219 223 304 253 253 13 277 323 301 302 305 183 194 173 166 158 158 157 152 156 155 153 148 145 143 140 136 135 135 135 138